Weather History for KMIV - November, 2012

Change the Weather History Date:

Wednesday, November 14, 2012

  Actual Average Record
Temperature  
Mean Temperature 39 °F -  
Max Temperature 48 °F 55 °F 74 °F (1955)
Min Temperature 30 °F 36 °F 18 °F (1986)
Degree Days  
Heating Degree Days 26    
Moisture  
Dew Point 28 °F    
Average Humidity 66    
Maximum Humidity 85    
Minimum Humidity 41    
Precipitation  
Precipitation 0.00 in - - ()
Sea Level Pressure  
Sea Level Pressure 30.47 in    
Wind  
Wind Speed 6 mph (North)    
Max Wind Speed 13 mph    
Max Gust Speed 21 mph    
Visibility 10 miles    
Events      
Averages and records for this station are not official NWS values.
T = Trace of Precipitation, MM = Missing Value Source: NWS Daily Summary

Daily Weather History Graph

Daily Weather History Graph

Search for Another Location

Airport or City:

Trip Planner

Search our weather history database for the weather conditions in past years. The results will help you decide how hot, cold, wet, or windy it might be!

Date:

Astronomy

Nov. 14, 2012 Rise Set
Actual Time 6:43 AM EST 4:45 PM EST
Civil Twilight 6:14 AM EST 5:14 PM EST
Nautical Twilight 5:42 AM EST 5:46 PM EST
Astronomical Twilight 5:10 AM EST 6:18 PM EST
Moon 7:29 AM EST (11/14) 5:32 PM EST (11/14)
Length of Visible Light 10h 59m
Length of Day
10h 02m
New Moon, 1% of the Moon is Illuminated
Nov 14
New Moon
Nov 20
First Quarter
Nov 28
Full
Dec 6
Last Quarter
Dec 13
New

Hourly Weather History & Observations

Time (EST) Temp. Windchill Dew Point Humidity Pressure Visibility Wind Dir Wind Speed Gust Speed Precip Events Conditions
12:54 AM 35.1 °F 30.1 °F 27.0 °F 72% 30.46 in 10.0 mi North 5.8 mph - N/A   Clear
1:54 AM 35.1 °F 30.1 °F 27.0 °F 72% 30.47 in 10.0 mi North 5.8 mph - N/A   Clear
2:54 AM 34.0 °F 28.0 °F 27.0 °F 75% 30.47 in 10.0 mi NNW 6.9 mph - N/A   Scattered Clouds
3:54 AM 33.1 °F 27.7 °F 26.1 °F 75% 30.48 in 10.0 mi North 5.8 mph - N/A   Clear
4:54 AM 33.1 °F 28.7 °F 26.1 °F 75% 30.49 in 10.0 mi North 4.6 mph - N/A   Clear
5:54 AM 32.0 °F 26.4 °F 26.1 °F 79% 30.50 in 10.0 mi North 5.8 mph - N/A   Clear
6:54 AM 30.9 °F 26.2 °F 26.1 °F 82% 30.51 in 10.0 mi North 4.6 mph - N/A   Clear
7:54 AM 35.1 °F 30.1 °F 26.1 °F 70% 30.52 in 10.0 mi North 5.8 mph - N/A   Clear
8:54 AM 39.0 °F 34.0 °F 28.0 °F 65% 30.52 in 10.0 mi North 6.9 mph - N/A   Clear
9:54 AM 42.1 °F 35.7 °F 26.1 °F 53% 30.52 in 10.0 mi NNE 11.5 mph 20.7 mph N/A   Clear
10:54 AM 44.1 °F 37.7 °F 26.1 °F 49% 30.49 in 10.0 mi NNE 12.7 mph - N/A   Clear
11:54 AM 45.0 °F 39.7 °F 25.0 °F 46% 30.48 in 10.0 mi NE 10.4 mph 18.4 mph N/A   Clear
12:54 PM 48.0 °F - 25.0 °F 41% 30.47 in 10.0 mi North 11.5 mph 19.6 mph N/A   Clear
1:54 PM 48.0 °F - 25.0 °F 41% 30.46 in 10.0 mi North 9.2 mph - N/A   Clear
2:54 PM 48.0 °F - 25.0 °F 41% 30.45 in 10.0 mi North 10.4 mph - N/A   Clear
3:54 PM 46.0 °F 41.4 °F 27.0 °F 47% 30.44 in 10.0 mi NE 9.2 mph - N/A   Clear
4:54 PM 43.0 °F 41.3 °F 28.0 °F 56% 30.44 in 10.0 mi North 3.5 mph - N/A   Clear
5:54 PM 36.0 °F - 30.0 °F 79% 30.47 in 10.0 mi Calm Calm - N/A   Clear
6:54 PM 37.0 °F - 32.0 °F 82% 30.46 in 10.0 mi Calm Calm - N/A   Overcast
7:54 PM 42.1 °F 38.4 °F 32.0 °F 67% 30.44 in 10.0 mi NE 5.8 mph - N/A   Overcast
8:54 PM 43.0 °F 39.5 °F 30.9 °F 62% 30.45 in 10.0 mi ENE 5.8 mph - N/A   Overcast
9:54 PM 37.0 °F - 30.9 °F 79% 30.47 in 10.0 mi Calm Calm - N/A   Scattered Clouds
10:54 PM 37.0 °F - 30.9 °F 79% 30.46 in 10.0 mi Calm Calm - N/A   Overcast
11:54 PM 34.0 °F 28.8 °F 30.0 °F 85% 30.44 in 10.0 mi North 5.8 mph - N/A   Clear